CST,Max TemperatureF,Mean TemperatureF,Min TemperatureF,Max Dew PointF,MeanDew PointF,Min DewpointF,Max Humidity, Mean Humidity, Min Humidity, Max Sea Level PressureIn, Mean Sea Level PressureIn, Min Sea Level PressureIn, Max VisibilityMiles, Mean VisibilityMiles, Min VisibilityMiles, Max Wind SpeedMPH, Mean Wind SpeedMPH, Max Gust SpeedMPH,PrecipitationIn, CloudCover, Events, WindDirDegrees
2013-12-1,66,50,34,49,41,31,92,68,43,30.25,30.13,29.99,10,10,10,9,4,12,0.00,5,,175
2013-12-2,73,63,53,59,54,48,93,79,64,29.96,29.81,29.72,10,8,0,18,6,23,T,6,Fog,195
2013-12-3,77,64,50,63,59,50,100,75,50,29.77,29.74,29.67,10,7,0,21,10,28,0.00,6,Fog,177
2013-12-4,80,73,66,66,64,63,100,79,58,29.92,29.83,29.77,10,8,5,23,10,30,0.00,6,,176
2013-12-5,82,65,47,69,61,46,97,80,62,30.00,29.94,29.87,10,9,4,16,9,23,0.00,7,,184
2013-12-6,47,40,33,45,40,32,100,93,85,30.32,30.10,29.99,10,6,2,18,10,25,0.20,8,Rain,343
2013-12-7,36,34,31,33,31,30,100,91,82,30.43,30.34,30.29,10,7,2,17,10,21,0.00,8,,8
2013-12-8,43,39,34,42,38,33,100,93,85,30.28,30.15,30.08,10,5,1,9,3,14,0.79,8,Rain-Thunderstorm,8
2013-12-9,43,40,37,43,39,35,100,93,86,30.21,30.15,30.10,10,6,2,13,7,17,0.52,8,Rain,352
2013-12-10,46,37,28,36,30,25,96,75,53,30.42,30.33,30.18,10,9,4,20,7,23,0.01,5,Rain,340
2013-12-11,57,42,26,32,29,24,92,61,30,30.49,30.42,30.37,10,10,9,14,5,,0.00,1,,15
2013-12-12,51,39,26,30,23,17,85,56,26,30.58,30.49,30.40,10,10,10,14,6,20,0.00,1,,27
2013-12-13,54,39,24,46,30,21,92,64,36,30.39,30.18,29.90,10,10,5,21,7,29,0.09,4,Rain,141
2013-12-14,54,39,24,56,49,34,92,64,36,30.13,29.93,29.82,10,8,2,21,7,29,0.09,8,Rain,283
2013-12-15,42,34,26,33,30,25,92,80,67,30.32,30.26,30.14,10,7,5,16,7,21,0.00,6,,339
2013-12-16,61,44,26,36,29,24,92,60,27,30.35,30.29,30.23,10,8,5,12,2,18,0.00,0,,202
2013-12-17,65,47,29,38,34,26,92,63,34,30.33,30.28,30.22,10,10,10,12,3,15,0.00,0,,232
2013-12-18,66,49,31,37,34,30,96,63,29,30.37,30.28,30.21,10,9,2,12,5,17,0.00,0,,149
2013-12-19,69,53,37,54,47,33,85,72,59,30.20,30.12,30.03,10,10,10,16,9,22,0.00,5,,157
2013-12-20,76,66,55,65,61,54,90,79,68,30.04,29.99,29.92,10,10,10,20,11,25,0.00,7,,159
2013-12-21,79,68,57,67,63,53,97,81,64,29.91,29.76,29.64,10,8,1,33,18,43,1.47,7,Rain-Thunderstorm,199
2013-12-22,64,54,44,56,51,41,100,86,72,30.21,30.00,29.80,10,10,4,20,5,25,0.18,7,Rain,269
2013-12-23,45,38,31,39,31,26,89,71,53,30.51,30.37,30.22,10,10,6,22,11,22,0.00,6,,338
2013-12-24,47,38,28,27,24,22,85,62,38,30.57,30.49,30.41,10,10,10,15,6,20,0.00,0,,15
2013-12-25,51,37,23,29,23,19,88,59,29,30.43,30.38,30.32,10,10,10,10,2,13,0.00,3,,59
2013-12-26,56,42,28,33,31,25,92,67,41,30.42,30.37,30.32,10,10,9,13,3,16,0.00,1,,356
2013-12-27,54,41,28,36,31,26,92,64,35,30.47,30.39,30.33,10,10,10,10,3,14,0.00,4,,31
2013-12-28,47,45,42,45,41,30,96,75,53,30.31,30.13,29.99,10,7,2,12,4,16,0.83,8,Rain,16
2013-12-29,61,52,43,45,42,37,100,71,42,30.14,30.06,29.98,10,8,2,12,2,15,0.00,6,,299
2013-12-30,47,42,37,42,38,32,96,84,71,30.38,30.24,30.11,10,10,10,12,5,17,0.00,7,,333
2013-12-31,45,40,35,33,31,30,85,72,58,30.46,30.39,30.31,10,10,9,12,6,16,0.00,7,,7